Weather History for Fryeburg, ME

Change the Weather History Date:

Saturday, October 22, 2011

  Actual Average Record
Temperature  
Mean Temperature 45 °F -  
Max Temperature 57 °F 53 °F 82 °F (2007)
Min Temperature 35 °F 29 °F 19 °F (2002)
Degree Days  
Heating Degree Days 20    
Moisture  
Dew Point 40 °F    
Average Humidity 81    
Maximum Humidity 100    
Minimum Humidity 57    
Precipitation  
Precipitation 0.03 in - - ()
Sea Level Pressure  
Sea Level Pressure 29.98 in    
Wind  
Wind Speed 1 mph (WNW)    
Max Wind Speed 6 mph    
Max Gust Speed -    
Visibility 9 miles    
Events Rain    
Averages and records for this station are not official NWS values.
T = Trace of Precipitation, MM = Missing Value Source: NWS Daily Summary

Daily Weather History Graph

Daily Weather History Graph

Search for Another Location

Airport:

Trip Planner

Search our weather history database for the weather conditions in past years. The results will help you decide how hot, cold, wet, or windy it might be!

Date:

Astronomy

Oct. 22, 2011 Rise Set
Actual Time 7:06 AM EDT 5:49 PM EDT
Civil Twilight 6:37 AM EDT 6:18 PM EDT
Nautical Twilight 6:03 AM EDT 6:52 PM EDT
Astronomical Twilight 5:30 AM EDT 7:25 PM EDT
Moon 1:50 AM EDT (10/22) 3:13 PM EDT (10/22)
Length of Visible Light 11h 41m
Length of Day
10h 42m
Waning Crescent, 24% of the Moon is Illuminated
Oct 22
Waning Crescent
Oct 26
New
Nov 2
First Quarter
Nov 10
Full
Nov 18
Last Quarter

Hourly Weather History & Observations

Time (EDT) Temp. Dew Point Humidity Pressure Visibility Wind Dir Wind Speed Gust Speed Precip Events Conditions
12:54 AM 43.0 °F 39.9 °F 89% 29.93 in 10.0 mi Calm Calm - N/A   Clear
1:54 AM 41.0 °F 39.0 °F 93% 29.93 in 10.0 mi Calm Calm - N/A   Clear
3:54 AM 37.9 °F 36.0 °F 93% 29.93 in 10.0 mi Calm Calm - N/A   Clear
4:54 AM 36.0 °F 35.1 °F 97% 29.94 in 2.0 mi Calm Calm - N/A   Clear
5:01 AM 35.6 °F 35.6 °F 100% 29.93 in 1.5 mi Calm Calm - N/A   Clear
5:05 AM 35.6 °F 35.6 °F 100% 29.93 in 3.0 mi Calm Calm - N/A   Clear
5:54 AM 39.0 °F 37.9 °F 96% 29.95 in 10.0 mi Calm Calm - N/A   Overcast
7:54 AM 42.1 °F 41.0 °F 96% 29.97 in 10.0 mi Calm Calm - N/A   Overcast
8:54 AM 44.1 °F 43.0 °F 96% 29.98 in 10.0 mi Calm Calm - N/A   Overcast
9:54 AM 46.9 °F 44.1 °F 90% 29.98 in 10.0 mi Calm Calm - N/A   Overcast
10:54 AM 52.0 °F 44.1 °F 74% 29.98 in 10.0 mi Variable 3.5 mph - N/A   Overcast
11:54 AM 55.0 °F 42.1 °F 62% 29.97 in 10.0 mi West 3.5 mph - N/A   Overcast
12:54 PM 51.1 °F 46.0 °F 83% 29.96 in 10.0 mi Calm Calm - 0.02 in Rain Light Rain
1:54 PM 52.0 °F 46.9 °F 83% 29.96 in 10.0 mi Calm Calm - 0.01 in   Mostly Cloudy
2:54 PM 55.9 °F 41.0 °F 57% 29.95 in 10.0 mi Variable 4.6 mph - N/A   Scattered Clouds
3:54 PM 54.0 °F 41.0 °F 62% 29.98 in 10.0 mi NNW 3.5 mph - N/A   Overcast
4:54 PM 53.1 °F 39.0 °F 59% 29.98 in 10.0 mi West 4.6 mph - N/A   Overcast
5:54 PM 51.1 °F 39.0 °F 63% 30.00 in 10.0 mi Variable 3.5 mph - N/A   Overcast
6:54 PM 48.9 °F 41.0 °F 74% 30.02 in 10.0 mi Calm Calm - N/A   Overcast
7:54 PM 48.0 °F 39.9 °F 74% 30.03 in 10.0 mi Calm Calm - N/A   Overcast
8:54 PM 48.9 °F 39.0 °F 69% 30.04 in 10.0 mi West 5.8 mph - N/A   Overcast
9:54 PM 48.0 °F 41.0 °F 77% 30.05 in 10.0 mi Calm Calm - N/A   Overcast
10:54 PM 46.0 °F 41.0 °F 83% 30.06 in 10.0 mi Calm Calm - N/A   Overcast